Regional Weather Roundup
Issued by NWS

Current Version | Previous Version | Text Only | Print | Product List | Glossary On
Versions: 1 2 3 4 5 6 7 8 9 10 11 12 13 14 15 16 17 18 19 20 21 22 23 24 25 26 27 28 29 30 31 32 33 34 35 36 37 38 39 40 41 42 43 44 45 46 47 48 49 50
354
ASCA42 TJSJ 230710
RWRPR
PUERTO RICO/U.S. VIRGIN ISLANDS HOURLY WEATHER ROUNDUP
NATIONAL WEATHER SERVICE SAN JUAN PR
300 AM AST WED JAN 23 2019

PRZ001>002-007>008-010-230800-
PUERTO RICO

CITY           SKY/WX    TMP DP  RH WIND       PRES   REMARKS
SAN JUAN LMM   PTCLDY    77  70  78 NE15      30.12F
CEIBA          PTCLDY    75  68  78 NE12G21   30.13F
$$

VIZ001>002-230800-
U.S. VIRGIN ISLANDS

CITY           SKY/WX    TMP DP  RH WIND       PRES   REMARKS
CHARLOTTE AMA  LGT RAIN  77  68  73 NE14      30.11F
CHRISTIANSTED  CLEAR     77  72  83 NE10      30.10F
$$

HOURLY WEATHER ROUNDUP FOR THE NEWS MEDIA

CITY           SKY/WX    TMP DP  RH WIND       PRES   REMARKS
ORLANDO        MOCLDY    64  56  75 SE8       30.30F
NEW YORK       MOCLDY    30  18  60 SW17      30.53F WCI  18
NEWARK         MOCLDY    28   8  43 S8        30.51F WCI  20
CHICAGO        DRIZZLE   33  33 100 CALM      29.83F FOG
HARTFORD       FAIR      14  11  87 CALM      30.53S
BOSTON         FAIR      20   5  52 S8        30.51F WCI  10
DALLAS         CLOUDY    37  24  59 NW22G31   30.10R WCI  26
PHILADELPHIA   CLOUDY    28  14  55 S6        30.51F WCI  22
LOS ANGELES    PTCLDY    58  21  24 CALM      30.32S
WASHINGTON DC  CLOUDY    29   8  41 S8        30.44F WCI  21



USA.gov is the U.S. government's official web portal to all federal, state and local government web resources and services.